Year,Month,Day,Hour,Minute,Value (Times are PST for temperature in C)
2016,02,20,00,00,4.30
2016,02,20,00,01,4.30
2016,02,20,00,02,4.30
2016,02,20,00,03,4.30
2016,02,20,00,04,4.30
2016,02,20,00,05,4.30
2016,02,20,00,06,4.30
2016,02,20,00,07,4.30
2016,02,20,00,08,4.30
2016,02,20,00,09,4.30
2016,02,20,00,10,4.30
2016,02,20,00,11,4.30
2016,02,20,00,12,4.30
2016,02,20,00,13,4.30
2016,02,20,00,14,4.30
2016,02,20,00,15,4.30
2016,02,20,00,16,4.40
2016,02,20,00,17,4.30
2016,02,20,00,18,4.40
2016,02,20,00,19,4.40
2016,02,20,00,20,4.40
2016,02,20,00,21,4.40
2016,02,20,00,22,4.50
2016,02,20,00,23,4.50
2016,02,20,00,24,4.60
2016,02,20,00,25,4.60
2016,02,20,00,26,4.60
2016,02,20,00,27,4.60
2016,02,20,00,28,4.60
2016,02,20,00,29,4.60
2016,02,20,00,30,4.70
2016,02,20,00,31,4.70
2016,02,20,00,32,4.70
2016,02,20,00,33,4.70
2016,02,20,00,34,4.70
2016,02,20,00,35,4.70
2016,02,20,00,36,4.70
2016,02,20,00,37,4.70
2016,02,20,00,38,4.70
2016,02,20,00,39,4.70
2016,02,20,00,40,4.70
2016,02,20,00,41,4.70
2016,02,20,00,42,4.70
2016,02,20,00,43,4.70
2016,02,20,00,44,4.70
2016,02,20,00,45,4.60
2016,02,20,00,46,4.70
2016,02,20,00,47,4.60
2016,02,20,00,48,4.60
2016,02,20,00,49,4.60
2016,02,20,00,50,4.60
2016,02,20,00,51,4.60
2016,02,20,00,52,4.60
2016,02,20,00,53,4.60
2016,02,20,00,54,4.60
2016,02,20,00,55,4.60
2016,02,20,00,56,4.60
2016,02,20,00,57,4.60
2016,02,20,00,58,4.60
2016,02,20,00,59,4.60
2016,02,20,01,00,4.60
2016,02,20,01,01,4.50
2016,02,20,01,02,4.50
2016,02,20,01,03,4.50
2016,02,20,01,04,4.50
2016,02,20,01,05,4.50
2016,02,20,01,06,4.40
2016,02,20,01,07,4.40
2016,02,20,01,08,4.40
2016,02,20,01,09,4.40
2016,02,20,01,10,4.40
2016,02,20,01,11,4.40
2016,02,20,01,12,4.40
2016,02,20,01,13,4.30
2016,02,20,01,14,4.30
2016,02,20,01,15,4.30
2016,02,20,01,16,4.30
2016,02,20,01,17,4.30
2016,02,20,01,18,4.30
2016,02,20,01,19,4.30
2016,02,20,01,20,4.20
2016,02,20,01,21,4.20
2016,02,20,01,22,4.20
2016,02,20,01,23,4.20
2016,02,20,01,24,4.20
2016,02,20,01,25,4.20
2016,02,20,01,26,4.20
2016,02,20,01,27,4.10
2016,02,20,01,28,4.10
2016,02,20,01,29,4.10
2016,02,20,01,30,4.10
2016,02,20,01,31,4.10
2016,02,20,01,32,4.00
2016,02,20,01,33,4.00
2016,02,20,01,34,4.00
2016,02,20,01,35,3.90
2016,02,20,01,36,3.90
2016,02,20,01,37,3.90
2016,02,20,01,38,3.90
2016,02,20,01,39,3.90
2016,02,20,01,40,3.90
2016,02,20,01,41,3.80
2016,02,20,01,42,3.80
2016,02,20,01,43,3.80
2016,02,20,01,44,3.80
2016,02,20,01,45,3.80
2016,02,20,01,46,3.80
2016,02,20,01,47,3.80
2016,02,20,01,48,3.80
2016,02,20,01,49,3.80
2016,02,20,01,50,3.80
2016,02,20,01,51,3.80
2016,02,20,01,52,3.80
2016,02,20,01,53,3.80
2016,02,20,01,54,3.80
2016,02,20,01,55,3.70
2016,02,20,01,56,3.70
2016,02,20,01,57,3.80
2016,02,20,01,58,3.80
2016,02,20,01,59,3.80
2016,02,20,02,00,3.80
2016,02,20,02,01,3.80
2016,02,20,02,02,3.80
2016,02,20,02,03,3.80
2016,02,20,02,04,3.80
2016,02,20,02,05,3.80
2016,02,20,02,06,3.80
2016,02,20,02,07,3.90
2016,02,20,02,08,3.90
2016,02,20,02,09,3.90
2016,02,20,02,10,3.90
2016,02,20,02,11,3.90
2016,02,20,02,12,3.90
2016,02,20,02,13,3.90
2016,02,20,02,14,3.90
2016,02,20,02,15,3.90
2016,02,20,02,16,3.90
2016,02,20,02,17,3.90
2016,02,20,02,18,3.90
2016,02,20,02,19,3.90
2016,02,20,02,20,3.90
2016,02,20,02,21,3.90
2016,02,20,02,22,3.90
2016,02,20,02,23,3.90
2016,02,20,02,24,3.90
2016,02,20,02,25,3.90
2016,02,20,02,26,3.90
2016,02,20,02,27,3.90
2016,02,20,02,28,3.90
2016,02,20,02,29,3.90
2016,02,20,02,30,3.90
2016,02,20,02,31,3.90
2016,02,20,02,32,3.80
2016,02,20,02,33,3.80
2016,02,20,02,34,3.80
2016,02,20,02,35,3.80
2016,02,20,02,36,3.80
2016,02,20,02,37,3.80
2016,02,20,02,38,3.70
2016,02,20,02,39,3.70
2016,02,20,02,40,3.70
2016,02,20,02,41,3.60
2016,02,20,02,42,3.60
2016,02,20,02,43,3.60
2016,02,20,02,44,3.60
2016,02,20,02,45,3.60
2016,02,20,02,46,3.60
2016,02,20,02,47,3.60
2016,02,20,02,48,3.60
2016,02,20,02,49,3.50
2016,02,20,02,50,3.50
2016,02,20,02,51,3.50
2016,02,20,02,52,3.50
2016,02,20,02,53,3.50
2016,02,20,02,54,3.50
2016,02,20,02,55,3.50
2016,02,20,02,56,3.50
2016,02,20,02,57,3.50
2016,02,20,02,58,3.50
2016,02,20,02,59,3.50
2016,02,20,03,00,3.50
2016,02,20,03,01,3.50
2016,02,20,03,02,3.40
2016,02,20,03,03,3.40
2016,02,20,03,04,3.40
2016,02,20,03,05,3.40
2016,02,20,03,06,3.40
2016,02,20,03,07,3.40
2016,02,20,03,08,3.40
2016,02,20,03,09,3.40
2016,02,20,03,10,3.40
2016,02,20,03,11,3.40
2016,02,20,03,12,3.40
2016,02,20,03,13,3.40
2016,02,20,03,14,3.40
2016,02,20,03,15,3.40
2016,02,20,03,16,3.40
2016,02,20,03,17,3.40
2016,02,20,03,18,3.30
2016,02,20,03,19,3.30
2016,02,20,03,20,3.30
2016,02,20,03,21,3.30
2016,02,20,03,22,3.30
2016,02,20,03,23,3.30
2016,02,20,03,24,3.30
2016,02,20,03,25,3.30
2016,02,20,03,26,3.20
2016,02,20,03,27,3.20
2016,02,20,03,28,3.20
2016,02,20,03,29,3.10
2016,02,20,03,30,3.10
2016,02,20,03,31,3.10
2016,02,20,03,32,3.10
2016,02,20,03,33,3.10
2016,02,20,03,34,3.10
2016,02,20,03,35,3.10
2016,02,20,03,36,3.10
2016,02,20,03,37,3.10
2016,02,20,03,38,3.10
2016,02,20,03,39,3.10
2016,02,20,03,40,3.10
2016,02,20,03,41,3.10
2016,02,20,03,42,3.10
2016,02,20,03,43,3.20
2016,02,20,03,44,3.20
2016,02,20,03,45,3.20
2016,02,20,03,46,3.20
2016,02,20,03,47,3.20
2016,02,20,03,48,3.20
2016,02,20,03,49,3.20
2016,02,20,03,50,3.20
2016,02,20,03,51,3.20
2016,02,20,03,52,3.10
2016,02,20,03,53,3.10
2016,02,20,03,54,3.10
2016,02,20,03,55,3.10
2016,02,20,03,56,3.10
2016,02,20,03,57,3.10
2016,02,20,03,58,3.10
2016,02,20,03,59,3.10
2016,02,20,04,00,3.10
2016,02,20,04,01,3.10
2016,02,20,04,02,3.10
2016,02,20,04,03,3.10
2016,02,20,04,04,3.00
2016,02,20,04,05,3.00
2016,02,20,04,06,3.00
2016,02,20,04,07,2.90
2016,02,20,04,08,2.90
2016,02,20,04,09,2.90
2016,02,20,04,10,2.90
2016,02,20,04,11,2.90
2016,02,20,04,12,2.90
2016,02,20,04,13,2.90
2016,02,20,04,14,2.90
2016,02,20,04,15,2.90
2016,02,20,04,16,2.90
2016,02,20,04,17,2.80
2016,02,20,04,18,2.80
2016,02,20,04,19,2.80
2016,02,20,04,20,2.80
2016,02,20,04,21,2.80
2016,02,20,04,22,2.70
2016,02,20,04,23,2.70
2016,02,20,04,24,2.70
2016,02,20,04,25,2.70
2016,02,20,04,26,2.70
2016,02,20,04,27,2.70
2016,02,20,04,28,2.70
2016,02,20,04,29,2.70
2016,02,20,04,30,2.70
2016,02,20,04,31,2.70
2016,02,20,04,32,2.70
2016,02,20,04,33,2.70
2016,02,20,04,34,2.60
2016,02,20,04,35,2.60
2016,02,20,04,36,2.60
2016,02,20,04,37,2.60
2016,02,20,04,38,2.60
2016,02,20,04,39,2.60
2016,02,20,04,40,2.60
2016,02,20,04,41,2.60
2016,02,20,04,42,2.60
2016,02,20,04,43,2.60
2016,02,20,04,44,2.60
2016,02,20,04,45,2.60
2016,02,20,04,46,2.50
2016,02,20,04,47,2.30
2016,02,20,04,48,2.30
2016,02,20,04,49,2.30
2016,02,20,04,50,2.30
2016,02,20,04,51,2.20
2016,02,20,04,52,2.20
2016,02,20,04,53,2.20
2016,02,20,04,54,2.20
2016,02,20,04,55,2.20
2016,02,20,04,56,2.20
2016,02,20,04,57,2.20
2016,02,20,04,58,2.20
2016,02,20,04,59,2.20
2016,02,20,05,00,2.20
2016,02,20,05,01,2.10
2016,02,20,05,02,2.10
2016,02,20,05,03,2.10
2016,02,20,05,04,2.10
2016,02,20,05,05,2.10
2016,02,20,05,06,2.00
2016,02,20,05,07,2.00
2016,02,20,05,08,2.00
2016,02,20,05,09,2.00
2016,02,20,05,10,1.90
2016,02,20,05,11,1.90
2016,02,20,05,12,1.90
2016,02,20,05,13,1.90
2016,02,20,05,14,1.80
2016,02,20,05,15,1.80
2016,02,20,05,16,1.80
2016,02,20,05,17,1.70
2016,02,20,05,18,1.70
2016,02,20,05,19,1.70
2016,02,20,05,20,1.70
2016,02,20,05,21,1.60
2016,02,20,05,22,1.60
2016,02,20,05,23,1.60
2016,02,20,05,24,1.60
2016,02,20,05,25,1.60
2016,02,20,05,26,1.60
2016,02,20,05,27,1.60
2016,02,20,05,28,1.60
2016,02,20,05,29,1.60
2016,02,20,05,30,1.60
2016,02,20,05,31,1.60
2016,02,20,05,32,1.60
2016,02,20,05,33,1.60
2016,02,20,05,34,1.60
2016,02,20,05,35,1.60
2016,02,20,05,36,1.50
2016,02,20,05,37,1.50
2016,02,20,05,38,1.50
2016,02,20,05,39,1.50
2016,02,20,05,40,1.50
2016,02,20,05,41,1.40
2016,02,20,05,42,1.40
2016,02,20,05,43,1.40
2016,02,20,05,44,1.40
2016,02,20,05,45,1.40
2016,02,20,05,46,1.40
2016,02,20,05,47,1.40
2016,02,20,05,48,1.40
2016,02,20,05,49,1.50
2016,02,20,05,50,1.50
2016,02,20,05,51,1.60
2016,02,20,05,52,1.60
2016,02,20,05,53,1.60
2016,02,20,05,54,1.60
2016,02,20,05,55,1.60
2016,02,20,05,56,1.60
2016,02,20,05,57,1.60
2016,02,20,05,58,1.60
2016,02,20,05,59,1.60
2016,02,20,06,00,1.60
2016,02,20,06,01,1.60
2016,02,20,06,02,1.60
2016,02,20,06,03,1.60
2016,02,20,06,04,1.60
2016,02,20,06,05,1.60
2016,02,20,06,06,1.60
2016,02,20,06,07,1.60
2016,02,20,06,08,1.60
2016,02,20,06,09,1.50
2016,02,20,06,10,1.50
2016,02,20,06,11,1.50
2016,02,20,06,12,1.50
2016,02,20,06,13,1.50
2016,02,20,06,14,1.50
2016,02,20,06,15,1.40
2016,02,20,06,16,1.40
2016,02,20,06,17,1.40
2016,02,20,06,18,1.40
2016,02,20,06,19,1.40
2016,02,20,06,20,1.40
2016,02,20,06,21,1.30
2016,02,20,06,22,1.30
2016,02,20,06,23,1.30
2016,02,20,06,24,1.30
2016,02,20,06,25,1.20
2016,02,20,06,26,1.20
2016,02,20,06,27,1.20
2016,02,20,06,28,1.20
2016,02,20,06,29,1.10
2016,02,20,06,30,1.10
2016,02,20,06,31,1.10
2016,02,20,06,32,1.10
2016,02,20,06,33,1.00
2016,02,20,06,34,1.00
2016,02,20,06,35,1.00
2016,02,20,06,36,1.00
2016,02,20,06,37,0.90
2016,02,20,06,38,0.90
2016,02,20,06,39,0.90
2016,02,20,06,40,0.90
2016,02,20,06,41,0.90
2016,02,20,06,42,0.90
2016,02,20,06,43,0.90
2016,02,20,06,44,0.90
2016,02,20,06,45,0.90
2016,02,20,06,46,0.90
2016,02,20,06,47,0.90
2016,02,20,06,48,0.80
2016,02,20,06,49,0.80
2016,02,20,06,50,0.80
2016,02,20,06,51,0.80
2016,02,20,06,52,0.80
2016,02,20,06,53,0.80
2016,02,20,06,54,0.80
2016,02,20,06,55,0.80
2016,02,20,06,56,0.80
2016,02,20,06,57,0.80
2016,02,20,06,58,0.80
2016,02,20,06,59,0.70
2016,02,20,07,00,0.80
2016,02,20,07,01,0.80
2016,02,20,07,02,0.80
2016,02,20,07,03,0.80
2016,02,20,07,04,0.80
2016,02,20,07,05,0.80
2016,02,20,07,06,0.80
2016,02,20,07,07,0.80
2016,02,20,07,08,0.80
2016,02,20,07,09,0.80
2016,02,20,07,10,0.80
2016,02,20,07,11,0.80
2016,02,20,07,12,0.80
2016,02,20,07,13,0.80
2016,02,20,07,14,0.80
2016,02,20,07,15,0.80
2016,02,20,07,16,0.80
2016,02,20,07,17,0.80
2016,02,20,07,18,0.80
2016,02,20,07,19,0.80
2016,02,20,07,20,0.80
2016,02,20,07,21,0.80
2016,02,20,07,22,0.80
2016,02,20,07,23,0.80
2016,02,20,07,24,0.90
2016,02,20,07,25,0.90
2016,02,20,07,26,0.90
2016,02,20,07,27,0.90
2016,02,20,07,28,0.80
2016,02,20,07,29,0.80
2016,02,20,07,30,0.80
2016,02,20,07,31,0.80
2016,02,20,07,32,0.80
2016,02,20,07,33,0.80
2016,02,20,07,34,0.70
2016,02,20,07,35,0.70
2016,02,20,07,36,0.70
2016,02,20,07,37,0.70
2016,02,20,07,38,0.70
2016,02,20,07,39,0.70
2016,02,20,07,40,0.70
2016,02,20,07,41,0.70
2016,02,20,07,42,0.70
2016,02,20,07,43,0.70
2016,02,20,07,44,0.70
2016,02,20,07,45,0.70
2016,02,20,07,46,0.70
2016,02,20,07,47,0.70
2016,02,20,07,48,0.70
2016,02,20,07,49,0.70
2016,02,20,07,50,0.70
2016,02,20,07,51,0.70
2016,02,20,07,52,0.70
2016,02,20,07,53,0.70
2016,02,20,07,54,0.70
2016,02,20,07,55,0.70
2016,02,20,07,56,0.70
2016,02,20,07,57,0.70
2016,02,20,07,58,0.70
2016,02,20,07,59,0.70
2016,02,20,08,00,0.70
2016,02,20,08,01,0.70
2016,02,20,08,02,0.70
2016,02,20,08,03,0.70
2016,02,20,08,04,0.70
2016,02,20,08,05,0.70
2016,02,20,08,06,0.70
2016,02,20,08,07,0.80
2016,02,20,08,08,0.80
2016,02,20,08,09,0.80
2016,02,20,08,10,0.80
2016,02,20,08,11,0.80
2016,02,20,08,12,0.80
2016,02,20,08,13,0.80
2016,02,20,08,14,0.80
2016,02,20,08,15,0.90
2016,02,20,08,16,0.90
2016,02,20,08,17,0.90
2016,02,20,08,18,0.90
2016,02,20,08,19,0.90
2016,02,20,08,20,0.90
2016,02,20,08,21,1.00
2016,02,20,08,22,1.00
2016,02,20,08,23,1.00
2016,02,20,08,24,1.10
2016,02,20,08,25,1.10
2016,02,20,08,26,1.10
2016,02,20,08,27,1.20
2016,02,20,08,28,1.20
2016,02,20,08,29,1.20
2016,02,20,08,30,1.20
2016,02,20,08,31,1.20
2016,02,20,08,32,1.30
2016,02,20,08,33,1.30
2016,02,20,08,34,1.30
2016,02,20,08,35,1.30
2016,02,20,08,36,1.30
2016,02,20,08,37,1.30
2016,02,20,08,38,1.30
2016,02,20,08,39,1.30
2016,02,20,08,40,1.30
2016,02,20,08,41,1.30
2016,02,20,08,42,1.30
2016,02,20,08,43,1.30
2016,02,20,08,44,1.30
2016,02,20,08,45,1.30
2016,02,20,08,46,1.30
2016,02,20,08,47,1.30
2016,02,20,08,48,1.30
2016,02,20,08,49,1.30
2016,02,20,08,50,1.30
2016,02,20,08,51,1.40
2016,02,20,08,52,1.40
2016,02,20,08,53,1.40
2016,02,20,08,54,1.40
2016,02,20,08,55,1.40
2016,02,20,08,56,1.40
2016,02,20,08,57,1.40
2016,02,20,08,58,1.40
2016,02,20,08,59,1.40
2016,02,20,09,00,1.40
2016,02,20,09,01,1.40
2016,02,20,09,02,1.40
2016,02,20,09,03,1.40
2016,02,20,09,04,1.40
2016,02,20,09,05,1.40
2016,02,20,09,06,1.40
2016,02,20,09,07,1.40
2016,02,20,09,08,1.40
2016,02,20,09,09,1.40
2016,02,20,09,10,1.40
2016,02,20,09,11,1.40
2016,02,20,09,12,1.40
2016,02,20,09,13,1.40
2016,02,20,09,14,1.40
2016,02,20,09,15,1.40
2016,02,20,09,16,1.40
2016,02,20,09,17,1.50
2016,02,20,09,18,1.50
2016,02,20,09,19,1.50
2016,02,20,09,20,1.50
2016,02,20,09,21,1.60
2016,02,20,09,22,1.60
2016,02,20,09,23,1.60
2016,02,20,09,24,1.60
2016,02,20,09,25,1.60
2016,02,20,09,26,1.70
2016,02,20,09,27,1.70
2016,02,20,09,28,1.70
2016,02,20,09,29,1.70
2016,02,20,09,30,1.80
2016,02,20,09,31,1.80
2016,02,20,09,32,1.80
2016,02,20,09,33,1.80
2016,02,20,09,34,1.80
2016,02,20,09,35,1.80
2016,02,20,09,36,1.90
2016,02,20,09,37,1.90
2016,02,20,09,38,1.90
2016,02,20,09,39,1.90
2016,02,20,09,40,1.90
2016,02,20,09,41,1.90
2016,02,20,09,42,2.00
2016,02,20,09,43,2.00
2016,02,20,09,44,2.10
2016,02,20,09,45,2.10
2016,02,20,09,46,2.10
2016,02,20,09,47,2.10
2016,02,20,09,48,2.20
2016,02,20,09,49,2.20
2016,02,20,09,50,2.20
2016,02,20,09,51,2.20
2016,02,20,09,52,2.20
2016,02,20,09,53,2.20
2016,02,20,09,54,2.30
2016,02,20,09,55,2.30
2016,02,20,09,56,2.30
2016,02,20,09,57,2.30
2016,02,20,09,58,2.30
2016,02,20,09,59,2.40
2016,02,20,10,00,2.40
2016,02,20,10,01,2.40
2016,02,20,10,02,2.50
2016,02,20,10,03,2.50
2016,02,20,10,04,2.60
2016,02,20,10,05,2.60
2016,02,20,10,06,2.60
2016,02,20,10,07,2.60
2016,02,20,10,08,2.60
2016,02,20,10,09,2.70
2016,02,20,10,10,2.70
2016,02,20,10,11,2.70
2016,02,20,10,12,2.70
2016,02,20,10,13,2.70
2016,02,20,10,14,2.70
2016,02,20,10,15,2.80
2016,02,20,10,16,2.80
2016,02,20,10,17,2.80
2016,02,20,10,18,2.80
2016,02,20,10,19,2.80
2016,02,20,10,20,2.80
2016,02,20,10,21,2.80
2016,02,20,10,22,2.80
2016,02,20,10,23,2.80
2016,02,20,10,24,2.80
2016,02,20,10,25,2.80
2016,02,20,10,26,2.80
2016,02,20,10,27,2.80
2016,02,20,10,28,2.80
2016,02,20,10,29,2.80
2016,02,20,10,30,2.80
2016,02,20,10,31,2.90
2016,02,20,10,32,2.90
2016,02,20,10,33,3.00
2016,02,20,10,34,3.00
2016,02,20,10,35,3.00
2016,02,20,10,36,3.10
2016,02,20,10,37,3.10
2016,02,20,10,38,3.10
2016,02,20,10,39,3.10
2016,02,20,10,40,3.10
2016,02,20,10,41,3.10
2016,02,20,10,42,3.10
2016,02,20,10,43,3.10
2016,02,20,10,44,3.00
2016,02,20,10,45,3.00
2016,02,20,10,46,3.00
2016,02,20,10,47,3.00
2016,02,20,10,48,3.10
2016,02,20,10,49,3.10
2016,02,20,10,50,3.10
2016,02,20,10,51,3.20
2016,02,20,10,52,3.30
2016,02,20,10,53,3.40
2016,02,20,10,54,3.40
2016,02,20,10,55,3.50
2016,02,20,10,56,3.60
2016,02,20,10,57,3.60
2016,02,20,10,58,3.70
2016,02,20,10,59,3.70
2016,02,20,11,00,3.80
2016,02,20,11,01,3.80
2016,02,20,11,02,3.80
2016,02,20,11,03,3.70
2016,02,20,11,04,3.70
2016,02,20,11,05,3.60
2016,02,20,11,06,3.60
2016,02,20,11,07,3.70
2016,02,20,11,08,3.80
2016,02,20,11,09,3.90
2016,02,20,11,10,4.00
2016,02,20,11,11,4.10
2016,02,20,11,12,4.10
2016,02,20,11,13,4.00
2016,02,20,11,14,4.00
2016,02,20,11,15,3.90
2016,02,20,11,16,3.90
2016,02,20,11,17,4.00
2016,02,20,11,18,4.00
2016,02,20,11,19,4.00
2016,02,20,11,20,4.00
2016,02,20,11,21,4.00
2016,02,20,11,22,4.00
2016,02,20,11,23,4.10
2016,02,20,11,24,4.10
2016,02,20,11,25,4.10
2016,02,20,11,26,4.20
2016,02,20,11,27,4.20
2016,02,20,11,28,4.30
2016,02,20,11,29,4.30
2016,02,20,11,30,4.40
2016,02,20,11,31,4.40
2016,02,20,11,32,4.40
2016,02,20,11,33,4.40
2016,02,20,11,34,4.40
2016,02,20,11,35,4.40
2016,02,20,11,36,4.50
2016,02,20,11,37,4.50
2016,02,20,11,38,4.60
2016,02,20,11,39,4.70
2016,02,20,11,40,4.80
2016,02,20,11,41,4.80
2016,02,20,11,42,4.80
2016,02,20,11,43,4.90
2016,02,20,11,44,4.90
2016,02,20,11,45,4.90
2016,02,20,11,46,4.80
2016,02,20,11,47,4.80
2016,02,20,11,48,4.80
2016,02,20,11,49,4.80
2016,02,20,11,50,4.70
2016,02,20,11,51,4.70
2016,02,20,11,52,4.60
2016,02,20,11,53,4.60
2016,02,20,11,54,4.70
2016,02,20,11,55,4.70
2016,02,20,11,56,4.70
2016,02,20,11,57,4.70
2016,02,20,11,58,4.80
2016,02,20,11,59,4.80
2016,02,20,12,00,4.80
2016,02,20,12,01,4.80
2016,02,20,12,02,4.80
2016,02,20,12,03,4.90
2016,02,20,12,04,4.90
2016,02,20,12,05,5.00
2016,02,20,12,06,5.10
2016,02,20,12,07,5.10
2016,02,20,12,08,5.20
2016,02,20,12,09,5.20
2016,02,20,12,10,5.30
2016,02,20,12,11,5.30
2016,02,20,12,12,5.30
2016,02,20,12,13,5.40
2016,02,20,12,14,5.40
2016,02,20,12,15,5.40
2016,02,20,12,16,5.40
2016,02,20,12,17,5.50
2016,02,20,12,18,5.60
2016,02,20,12,19,5.70
2016,02,20,12,20,5.80
2016,02,20,12,21,5.90
2016,02,20,12,22,5.90
2016,02,20,12,23,5.90
2016,02,20,12,24,5.90
2016,02,20,12,25,5.90
2016,02,20,12,26,5.90
2016,02,20,12,27,6.00
2016,02,20,12,28,6.10
2016,02,20,12,29,6.20
2016,02,20,12,30,6.20
2016,02,20,12,31,6.30
2016,02,20,12,32,6.30
2016,02,20,12,33,6.30
2016,02,20,12,34,6.30
2016,02,20,12,35,6.40
2016,02,20,12,36,6.40
2016,02,20,12,37,6.40
2016,02,20,12,38,6.40
2016,02,20,12,39,6.50
2016,02,20,12,40,6.50
2016,02,20,12,41,6.50
2016,02,20,12,42,6.50
2016,02,20,12,43,6.50
2016,02,20,12,44,6.60
2016,02,20,12,45,6.60
2016,02,20,12,46,6.70
2016,02,20,12,47,6.70
2016,02,20,12,48,6.70
2016,02,20,12,49,6.70
2016,02,20,12,50,6.70
2016,02,20,12,51,6.80
2016,02,20,12,52,6.80
2016,02,20,12,53,6.80
2016,02,20,12,54,6.80
2016,02,20,12,55,6.80
2016,02,20,12,56,6.80
2016,02,20,12,57,6.90
2016,02,20,12,58,6.90
2016,02,20,12,59,6.90
2016,02,20,13,00,7.00
2016,02,20,13,01,7.00
2016,02,20,13,02,7.10
2016,02,20,13,03,7.10
2016,02,20,13,04,7.20
2016,02,20,13,05,7.20
2016,02,20,13,06,7.20
2016,02,20,13,07,7.30
2016,02,20,13,08,7.30
2016,02,20,13,09,7.30
2016,02,20,13,10,7.30
2016,02,20,13,11,7.40
2016,02,20,13,12,7.40
2016,02,20,13,13,7.50
2016,02,20,13,14,7.50
2016,02,20,13,15,7.60
2016,02,20,13,16,7.70
2016,02,20,13,17,7.80
2016,02,20,13,18,7.80
2016,02,20,13,19,7.90
2016,02,20,13,20,7.90
2016,02,20,13,21,7.90
2016,02,20,13,22,7.90
2016,02,20,13,23,7.90
2016,02,20,13,24,7.90
2016,02,20,13,25,7.90
2016,02,20,13,26,7.90
2016,02,20,13,27,8.00
2016,02,20,13,28,8.00
2016,02,20,13,29,8.10
2016,02,20,13,30,8.20
2016,02,20,13,31,8.20
2016,02,20,13,32,8.30
2016,02,20,13,33,8.30
2016,02,20,13,34,8.40
2016,02,20,13,35,8.40
2016,02,20,13,36,8.50
2016,02,20,13,37,8.50
2016,02,20,13,38,8.50
2016,02,20,13,39,8.50
2016,02,20,13,40,8.50
2016,02,20,13,41,8.60
2016,02,20,13,42,8.60
2016,02,20,13,43,8.60
2016,02,20,13,44,8.60
2016,02,20,13,45,8.60
2016,02,20,13,46,8.70
2016,02,20,13,47,8.70
2016,02,20,13,48,8.70
2016,02,20,13,49,8.70
2016,02,20,13,50,8.70
2016,02,20,13,51,8.70
2016,02,20,13,52,8.70
2016,02,20,13,53,8.80
2016,02,20,13,54,8.80
2016,02,20,13,55,8.80
2016,02,20,13,56,8.80
2016,02,20,13,57,8.80
2016,02,20,13,58,8.80
2016,02,20,13,59,8.80
2016,02,20,14,00,8.80
2016,02,20,14,01,8.70
2016,02,20,14,02,8.80
2016,02,20,14,03,8.80
2016,02,20,14,04,8.70
2016,02,20,14,05,8.70
2016,02,20,14,06,8.60
2016,02,20,14,07,8.50
2016,02,20,14,08,8.50
2016,02,20,14,09,8.40
2016,02,20,14,10,8.40
2016,02,20,14,11,8.40
2016,02,20,14,12,8.30
2016,02,20,14,13,8.30
2016,02,20,14,14,8.30
2016,02,20,14,15,8.30
2016,02,20,14,16,8.30
2016,02,20,14,17,8.30
2016,02,20,14,18,8.30
2016,02,20,14,19,8.30
2016,02,20,14,20,8.30
2016,02,20,14,21,8.40
2016,02,20,14,22,8.40
2016,02,20,14,23,8.40
2016,02,20,14,24,8.40
2016,02,20,14,25,8.40
2016,02,20,14,26,8.40
2016,02,20,14,27,8.40
2016,02,20,14,28,8.40
2016,02,20,14,29,8.40
2016,02,20,14,30,8.40
2016,02,20,14,31,8.40
2016,02,20,14,32,8.40
2016,02,20,14,33,8.20
2016,02,20,14,34,8.20
2016,02,20,14,35,8.10
2016,02,20,14,36,8.20
2016,02,20,14,37,8.20
2016,02,20,14,38,8.20
2016,02,20,14,39,8.20
2016,02,20,14,40,8.20
2016,02,20,14,41,8.30
2016,02,20,14,42,8.30
2016,02,20,14,43,8.30
2016,02,20,14,44,8.40
2016,02,20,14,45,8.40
2016,02,20,14,46,8.40
2016,02,20,14,47,8.50
2016,02,20,14,48,8.50
2016,02,20,14,49,8.60
2016,02,20,14,50,8.60
2016,02,20,14,51,8.60
2016,02,20,14,52,8.60
2016,02,20,14,53,8.70
2016,02,20,14,54,8.70
2016,02,20,14,55,8.70
2016,02,20,14,56,8.70
2016,02,20,14,57,8.70
2016,02,20,14,58,8.70
2016,02,20,14,59,8.70
2016,02,20,15,00,8.70
2016,02,20,15,01,8.70
2016,02,20,15,02,8.70
2016,02,20,15,03,8.80
2016,02,20,15,04,8.80
2016,02,20,15,05,8.90
2016,02,20,15,06,8.90
2016,02,20,15,07,8.90
2016,02,20,15,08,9.00
2016,02,20,15,09,9.00
2016,02,20,15,10,9.00
2016,02,20,15,11,9.10
2016,02,20,15,12,9.10
2016,02,20,15,13,9.20
2016,02,20,15,14,9.30
2016,02,20,15,15,9.30
2016,02,20,15,16,9.40
2016,02,20,15,17,9.40
2016,02,20,15,18,9.50
2016,02,20,15,19,9.60
2016,02,20,15,20,9.60
2016,02,20,15,21,9.60
2016,02,20,15,22,9.70
2016,02,20,15,23,9.70
2016,02,20,15,24,9.70
2016,02,20,15,25,9.80
2016,02,20,15,26,9.80
2016,02,20,15,27,9.80
2016,02,20,15,28,9.80
2016,02,20,15,29,9.70
2016,02,20,15,30,9.70
2016,02,20,15,31,9.70
2016,02,20,15,32,9.80
2016,02,20,15,33,9.80
2016,02,20,15,34,9.80
2016,02,20,15,35,9.90
2016,02,20,15,36,9.90
2016,02,20,15,37,9.90
2016,02,20,15,38,9.90
2016,02,20,15,39,9.80
2016,02,20,15,40,9.80
2016,02,20,15,41,9.80
2016,02,20,15,42,9.70
2016,02,20,15,43,9.70
2016,02,20,15,44,9.80
2016,02,20,15,45,9.70
2016,02,20,15,46,9.70
2016,02,20,15,47,9.50
2016,02,20,15,48,9.40
2016,02,20,15,49,9.30
2016,02,20,15,50,9.10
2016,02,20,15,51,9.00
2016,02,20,15,52,9.00
2016,02,20,15,53,8.90
2016,02,20,15,54,8.90
2016,02,20,15,55,8.90
2016,02,20,15,56,8.80
2016,02,20,15,57,8.80
2016,02,20,15,58,8.80
2016,02,20,15,59,8.80
2016,02,20,16,00,8.70
2016,02,20,16,01,8.70
2016,02,20,16,02,8.60
2016,02,20,16,03,8.60
2016,02,20,16,04,8.50
2016,02,20,16,05,8.50
2016,02,20,16,06,8.50
2016,02,20,16,07,8.40
2016,02,20,16,08,8.40
2016,02,20,16,09,8.40
2016,02,20,16,10,8.40
2016,02,20,16,11,8.40
2016,02,20,16,12,8.40
2016,02,20,16,13,8.40
2016,02,20,16,14,8.40
2016,02,20,16,15,8.40
2016,02,20,16,16,8.40
2016,02,20,16,17,8.40
2016,02,20,16,18,8.40
2016,02,20,16,19,8.40
2016,02,20,16,20,8.40
2016,02,20,16,21,8.40
2016,02,20,16,22,8.40
2016,02,20,16,23,8.40
2016,02,20,16,24,8.30
2016,02,20,16,25,8.30
2016,02,20,16,26,8.30
2016,02,20,16,27,8.30
2016,02,20,16,28,8.30
2016,02,20,16,29,8.20
2016,02,20,16,30,8.10
2016,02,20,16,31,8.00
2016,02,20,16,32,8.00
2016,02,20,16,33,7.90
2016,02,20,16,34,7.90
2016,02,20,16,35,7.80
2016,02,20,16,36,7.80
2016,02,20,16,37,7.80
2016,02,20,16,38,7.80
2016,02,20,16,39,7.80
2016,02,20,16,40,7.70
2016,02,20,16,41,7.70
2016,02,20,16,42,7.70
2016,02,20,16,43,7.70
2016,02,20,16,44,7.70
2016,02,20,16,45,7.70
2016,02,20,16,46,7.70
2016,02,20,16,47,7.70
2016,02,20,16,48,7.60
2016,02,20,16,49,7.60
2016,02,20,16,50,7.60
2016,02,20,16,51,7.60
2016,02,20,16,52,7.60
2016,02,20,16,53,7.60
2016,02,20,16,54,7.60
2016,02,20,16,55,7.60
2016,02,20,16,56,7.50
2016,02,20,16,57,7.50
2016,02,20,16,58,7.50
2016,02,20,16,59,7.50
2016,02,20,17,00,7.50
2016,02,20,17,01,7.50
2016,02,20,17,02,7.50
2016,02,20,17,03,7.50
2016,02,20,17,04,7.50
2016,02,20,17,05,7.40
2016,02,20,17,06,7.40
2016,02,20,17,07,7.40
2016,02,20,17,08,7.40
2016,02,20,17,09,7.40
2016,02,20,17,10,7.40
2016,02,20,17,11,7.40
2016,02,20,17,12,7.40
2016,02,20,17,13,7.40
2016,02,20,17,14,7.30
2016,02,20,17,15,7.30
2016,02,20,17,16,7.30
2016,02,20,17,17,7.30
2016,02,20,17,18,7.30
2016,02,20,17,19,7.30
2016,02,20,17,20,7.30
2016,02,20,17,21,7.30
2016,02,20,17,22,7.30
2016,02,20,17,23,7.30
2016,02,20,17,24,7.20
2016,02,20,17,25,7.20
2016,02,20,17,26,7.20
2016,02,20,17,27,7.20
2016,02,20,17,28,7.20
2016,02,20,17,29,7.20
2016,02,20,17,30,7.20
2016,02,20,17,31,7.20
2016,02,20,17,32,7.20
2016,02,20,17,33,7.10
2016,02,20,17,34,7.10
2016,02,20,17,35,7.10
2016,02,20,17,36,7.10
2016,02,20,17,37,7.10
2016,02,20,17,38,7.10
2016,02,20,17,39,7.10
2016,02,20,17,40,7.10
2016,02,20,17,41,7.10
2016,02,20,17,42,7.00
2016,02,20,17,43,7.00
2016,02,20,17,44,7.00
2016,02,20,17,45,7.00
2016,02,20,17,46,7.00
2016,02,20,17,47,6.90
2016,02,20,17,48,6.90
2016,02,20,17,49,6.90
2016,02,20,17,50,6.90
2016,02,20,17,51,6.90
2016,02,20,17,52,6.90
2016,02,20,17,53,6.90
2016,02,20,17,54,6.80
2016,02,20,17,55,6.80
2016,02,20,17,56,6.80
2016,02,20,17,57,6.80
2016,02,20,17,58,6.80
2016,02,20,17,59,6.80
2016,02,20,18,00,6.80
2016,02,20,18,01,6.80
2016,02,20,18,02,6.80
2016,02,20,18,03,6.80
2016,02,20,18,04,6.80
2016,02,20,18,05,6.60
2016,02,20,18,06,6.50